Location: Unspecified
(0.0000°N, 0.0000°E)
Time: 22:30:33
(UTC+00:00)

S-56A Canister/Altair - Visible Passes

Search period start: 01 August 2014 00:00
Search period end: 11 August 2014 00:00
Orbit: 633 x 2503 km, 38.9° (Epoch: 30 July)

Date Brightness Start Highest point End Pass type
(mag) Time Alt. Az. Time Alt. Az. Time Alt. Az.
01 Aug 10.1 04:46:54 10° N 04:48:57 13° NE 04:50:59 10° ENE visible
01 Aug 10.8 19:28:42 10° WSW 19:42:42 45° NW 19:54:28 10° NNE visible
01 Aug 11.7 21:47:53 10° NW 21:49:47 10° NW 21:51:38 10° NNW visible
02 Aug 10.7 18:55:12 10° WSW 19:09:39 51° NW 19:22:14 10° NNE visible
02 Aug 11.6 21:10:50 10° WNW 21:16:48 14° NW 21:22:10 10° N visible
03 Aug 10.7 18:21:52 10° WSW 18:36:32 58° NW 18:49:51 10° NE visible
03 Aug 11.6 20:35:30 10° WNW 20:43:45 17° NW 20:51:04 10° N visible
04 Aug 7.4 05:11:59 10° NW 05:16:32 72° NE 05:21:03 10° SE visible
04 Aug 11.5 20:00:45 10° W 20:10:41 21° NW 20:19:30 10° N visible
05 Aug 7.8 04:39:53 10° NW 04:44:32 53° NE 04:48:51 10° ESE visible
05 Aug 11.5 19:26:24 10° W 19:37:34 25° NW 19:47:38 10° N visible
06 Aug 8.3 04:10:39 28° N 04:12:30 40° NE 04:16:39 10° ESE visible
06 Aug 11.5 18:52:22 10° W 19:04:24 29° NW 19:15:34 10° NNE visible
07 Aug 9.1 03:41:42 27° ENE 03:41:42 27° ENE 03:44:25 10° ESE visible
07 Aug 8.5 05:40:44 10° W 05:44:02 20° SW 05:47:20 10° S visible
07 Aug 11.5 18:18:36 10° W 18:31:13 33° NW 18:43:20 10° NNE visible
08 Aug 8.2 05:10:06 20° WSW 05:11:57 26° SW 05:15:41 10° SSE visible
08 Aug 11.9 20:05:21 10° NW 20:06:58 10° NNW 20:08:34 10° NNW visible
09 Aug 8.0 04:40:45 32° SSW 04:40:45 32° SSW 04:43:58 10° SSE visible
09 Aug 11.9 19:28:05 10° NW 19:33:38 13° NNW 19:38:58 10° N visible
10 Aug 9.3 04:11:13 16° SSE 04:11:13 16° SSE 04:12:12 10° SSE visible
10 Aug 11.8 18:52:45 10° WNW 19:00:17 15° NNW 19:07:35 10° N visible
